﻿測定場所 (Monitoring sites),日付 (Measurement date),時間 (Measurement time),線量率 最大値 (max) μGy/h,線量率 最小値 (min) μGy/h,線量率 平均値 (average) μGy/h,
新宿 (Shinjuku),2011-05-15,23:00～23:59,0.0657,0.0605,0.0631,
新宿 (Shinjuku),2011-05-15,22:00～22:59,0.0660,0.0610,0.0630,
新宿 (Shinjuku),2011-05-15,21:00～21:59,0.0655,0.0610,0.0633,
新宿 (Shinjuku),2011-05-15,20:00～20:59,0.0661,0.0614,0.0633,
新宿 (Shinjuku),2011-05-15,19:00～19:59,0.0655,0.0603,0.0630,
新宿 (Shinjuku),2011-05-15,18:00～18:59,0.0657,0.0601,0.0631,
新宿 (Shinjuku),2011-05-15,17:00～17:59,0.0670,0.0603,0.0629,
新宿 (Shinjuku),2011-05-15,16:00～16:59,0.0649,0.0598,0.0625,
新宿 (Shinjuku),2011-05-15,15:00～15:59,0.0666,0.0598,0.0632,
新宿 (Shinjuku),2011-05-15,14:00～14:59,0.0662,0.0603,0.0633,
新宿 (Shinjuku),2011-05-15,13:00～13:59,0.0675,0.0607,0.0638,
新宿 (Shinjuku),2011-05-15,12:00～12:59,0.0669,0.0610,0.0635,
新宿 (Shinjuku),2011-05-15,11:00～11:59,0.0663,0.0609,0.0635,
新宿 (Shinjuku),2011-05-15,10:00～10:59,0.0664,0.0607,0.0637,
新宿 (Shinjuku),2011-05-15,09:00～09:59,0.0669,0.0603,0.0635,
新宿 (Shinjuku),2011-05-15,08:00～08:59,0.0677,0.0604,0.0636,
新宿 (Shinjuku),2011-05-15,07:00～07:59,0.0664,0.0600,0.0636,
新宿 (Shinjuku),2011-05-15,06:00～06:59,0.0673,0.0610,0.0640,
新宿 (Shinjuku),2011-05-15,05:00～05:59,0.0654,0.0603,0.0635,
新宿 (Shinjuku),2011-05-15,04:00～04:59,0.0658,0.0607,0.0632,
新宿 (Shinjuku),2011-05-15,03:00～03:59,0.0655,0.0606,0.0634,
新宿 (Shinjuku),2011-05-15,02:00～02:59,0.0649,0.0600,0.0630,
新宿 (Shinjuku),2011-05-15,01:00～01:59,0.0665,0.0605,0.0632,
新宿 (Shinjuku),2011-05-15,00:00～00:59,0.0666,0.0614,0.0634,
新宿 (Shinjuku),2011-05-14,23:00～23:59,0.0655,0.0603,0.0630,
新宿 (Shinjuku),2011-05-14,22:00～22:59,0.0663,0.0607,0.0633,
新宿 (Shinjuku),2011-05-14,21:00～21:59,0.0673,0.0608,0.0632,
新宿 (Shinjuku),2011-05-14,20:00～20:59,0.0662,0.0615,0.0631,
新宿 (Shinjuku),2011-05-14,19:00～19:59,0.0663,0.0603,0.0633,
新宿 (Shinjuku),2011-05-14,18:00～18:59,0.0663,0.0590,0.0636,
新宿 (Shinjuku),2011-05-14,17:00～17:59,0.0661,0.0610,0.0635,
新宿 (Shinjuku),2011-05-14,16:00～16:59,0.0663,0.0611,0.0636,
新宿 (Shinjuku),2011-05-14,15:00～15:59,0.0656,0.0610,0.0634,
新宿 (Shinjuku),2011-05-14,14:00～14:59,0.0659,0.0613,0.0637,
新宿 (Shinjuku),2011-05-14,13:00～13:59,0.0670,0.0613,0.0641,
新宿 (Shinjuku),2011-05-14,12:00～12:59,0.0668,0.0600,0.0640,
新宿 (Shinjuku),2011-05-14,11:00～11:59,0.0667,0.0607,0.0638,
新宿 (Shinjuku),2011-05-14,10:00～10:59,0.0669,0.0616,0.0637,
新宿 (Shinjuku),2011-05-14,09:00～09:59,0.0673,0.0604,0.0639,
新宿 (Shinjuku),2011-05-14,08:00～08:59,0.0676,0.0615,0.0642,
新宿 (Shinjuku),2011-05-14,07:00～07:59,0.0673,0.0623,0.0642,
新宿 (Shinjuku),2011-05-14,06:00～06:59,0.0672,0.0610,0.0642,
新宿 (Shinjuku),2011-05-14,05:00～05:59,0.0669,0.0612,0.0637,
新宿 (Shinjuku),2011-05-14,04:00～04:59,0.0660,0.0595,0.0634,
新宿 (Shinjuku),2011-05-14,03:00～03:59,0.0671,0.0607,0.0636,
新宿 (Shinjuku),2011-05-14,02:00～02:59,0.0660,0.0612,0.0636,
新宿 (Shinjuku),2011-05-14,01:00～01:59,0.0652,0.0603,0.0631,
新宿 (Shinjuku),2011-05-14,00:00～00:59,0.0661,0.0607,0.0632,
新宿 (Shinjuku),2011-05-13,23:00～23:59,0.0659,0.0607,0.0633,
新宿 (Shinjuku),2011-05-13,22:00～22:59,0.0657,0.0611,0.0635,
新宿 (Shinjuku),2011-05-13,21:00～21:59,0.0662,0.0604,0.0632,
新宿 (Shinjuku),2011-05-13,20:00～20:59,0.0658,0.0601,0.0635,
新宿 (Shinjuku),2011-05-13,19:00～19:59,0.0654,0.0598,0.0628,
新宿 (Shinjuku),2011-05-13,18:00～18:59,0.0660,0.0586,0.0633,
新宿 (Shinjuku),2011-05-13,17:00～17:59,0.0655,0.0601,0.0629,
新宿 (Shinjuku),2011-05-13,16:00～16:59,0.0660,0.0612,0.0636,
新宿 (Shinjuku),2011-05-13,15:00～15:59,0.0676,0.0610,0.0637,
新宿 (Shinjuku),2011-05-13,14:00～14:59,0.0666,0.0610,0.0636,
新宿 (Shinjuku),2011-05-13,13:00～13:59,0.0666,0.0615,0.0638,
新宿 (Shinjuku),2011-05-13,12:00～12:59,0.0656,0.0602,0.0635,
新宿 (Shinjuku),2011-05-13,11:00～11:59,0.0663,0.0614,0.0636,
新宿 (Shinjuku),2011-05-13,10:00～10:59,0.0669,0.0607,0.0636,
新宿 (Shinjuku),2011-05-13,09:00～09:59,0.0665,0.0607,0.0637,
新宿 (Shinjuku),2011-05-13,08:00～08:59,0.0663,0.0607,0.0636,
新宿 (Shinjuku),2011-05-13,07:00～07:59,0.0661,0.0608,0.0634,
新宿 (Shinjuku),2011-05-13,06:00～06:59,0.0661,0.0613,0.0634,
新宿 (Shinjuku),2011-05-13,05:00～05:59,0.0664,0.0606,0.0635,
新宿 (Shinjuku),2011-05-13,04:00～04:59,0.0658,0.0618,0.0635,
新宿 (Shinjuku),2011-05-13,03:00～03:59,0.0662,0.0608,0.0632,
新宿 (Shinjuku),2011-05-13,02:00～02:59,0.0662,0.0607,0.0637,
新宿 (Shinjuku),2011-05-13,01:00～01:59,0.0662,0.0616,0.0636,
新宿 (Shinjuku),2011-05-13,00:00～00:59,0.0662,0.0614,0.0637,
新宿 (Shinjuku),2011-05-12,23:00～23:59,0.0671,0.0611,0.0642,
新宿 (Shinjuku),2011-05-12,22:00～22:59,0.0688,0.0624,0.0656,
新宿 (Shinjuku),2011-05-12,21:00～21:59,0.0686,0.0614,0.0649,
新宿 (Shinjuku),2011-05-12,20:00～20:59,0.0687,0.0617,0.0650,
新宿 (Shinjuku),2011-05-12,19:00～19:59,0.0685,0.0627,0.0654,
新宿 (Shinjuku),2011-05-12,18:00～18:59,0.0684,0.0635,0.0661,
新宿 (Shinjuku),2011-05-12,17:00～17:59,0.0694,0.0630,0.0660,
新宿 (Shinjuku),2011-05-12,16:00～16:59,0.0681,0.0620,0.0653,
新宿 (Shinjuku),2011-05-12,15:00～15:59,0.0682,0.0606,0.0656,
新宿 (Shinjuku),2011-05-12,14:00～14:59,0.0682,0.0624,0.0653,
新宿 (Shinjuku),2011-05-12,13:00～13:59,0.0698,0.0631,0.0660,
新宿 (Shinjuku),2011-05-12,12:00～12:59,0.0672,0.0624,0.0653,
新宿 (Shinjuku),2011-05-12,11:00～11:59,0.0675,0.0622,0.0651,
新宿 (Shinjuku),2011-05-12,10:00～10:59,0.0685,0.0629,0.0652,
新宿 (Shinjuku),2011-05-12,09:00～09:59,0.0684,0.0617,0.0649,
新宿 (Shinjuku),2011-05-12,08:00～08:59,0.0658,0.0606,0.0636,
新宿 (Shinjuku),2011-05-12,07:00～07:59,0.0663,0.0605,0.0637,
新宿 (Shinjuku),2011-05-12,06:00～06:59,0.0656,0.0607,0.0635,
新宿 (Shinjuku),2011-05-12,05:00～05:59,0.0683,0.0599,0.0631,
新宿 (Shinjuku),2011-05-12,04:00～04:59,0.0676,0.0604,0.0632,
新宿 (Shinjuku),2011-05-12,03:00～03:59,0.0667,0.0618,0.0635,
新宿 (Shinjuku),2011-05-12,02:00～02:59,0.0656,0.0590,0.0631,
新宿 (Shinjuku),2011-05-12,01:00～01:59,0.0670,0.0618,0.0641,
新宿 (Shinjuku),2011-05-12,00:00～00:59,0.0691,0.0615,0.0658,
新宿 (Shinjuku),2011-05-11,23:00～23:59,0.0697,0.0635,0.0667,
新宿 (Shinjuku),2011-05-11,22:00～22:59,0.0699,0.0642,0.0671,
新宿 (Shinjuku),2011-05-11,21:00～21:59,0.0725,0.0666,0.0688,
新宿 (Shinjuku),2011-05-11,20:00～20:59,0.0705,0.0649,0.0685,
新宿 (Shinjuku),2011-05-11,19:00～19:59,0.0729,0.0667,0.0695,
新宿 (Shinjuku),2011-05-11,18:00～18:59,0.0729,0.0674,0.0706,
新宿 (Shinjuku),2011-05-11,17:00～17:59,0.0717,0.0658,0.0686,
新宿 (Shinjuku),2011-05-11,16:00～16:59,0.0689,0.0640,0.0668,
新宿 (Shinjuku),2011-05-11,15:00～15:59,0.0711,0.0649,0.0679,
新宿 (Shinjuku),2011-05-11,14:00～14:59,0.0711,0.0659,0.0689,
新宿 (Shinjuku),2011-05-11,13:00～13:59,0.0711,0.0654,0.0684,
新宿 (Shinjuku),2011-05-11,12:00～12:59,0.0721,0.0661,0.0685,
新宿 (Shinjuku),2011-05-11,11:00～11:59,0.0726,0.0660,0.0686,
新宿 (Shinjuku),2011-05-11,10:00～10:59,0.0715,0.0650,0.0681,
新宿 (Shinjuku),2011-05-11,09:00～09:59,0.0695,0.0645,0.0668,
新宿 (Shinjuku),2011-05-11,08:00～08:59,0.0691,0.0633,0.0659,
新宿 (Shinjuku),2011-05-11,07:00～07:59,0.0675,0.0624,0.0655,
新宿 (Shinjuku),2011-05-11,06:00～06:59,0.0685,0.0628,0.0657,
新宿 (Shinjuku),2011-05-11,05:00～05:59,0.0702,0.0636,0.0673,
新宿 (Shinjuku),2011-05-11,04:00～04:59,0.0710,0.0652,0.0683,
新宿 (Shinjuku),2011-05-11,03:00～03:59,0.0717,0.0652,0.0689,
新宿 (Shinjuku),2011-05-11,02:00～02:59,0.0699,0.0638,0.0665,
新宿 (Shinjuku),2011-05-11,01:00～01:59,0.0701,0.0645,0.0673,
新宿 (Shinjuku),2011-05-11,00:00～00:59,0.0702,0.0649,0.0677,
新宿 (Shinjuku),2011-05-10,23:00～23:59,0.0703,0.0647,0.0677,
新宿 (Shinjuku),2011-05-10,22:00～22:59,0.0686,0.0627,0.0653,
新宿 (Shinjuku),2011-05-10,21:00～21:59,0.0687,0.0625,0.0651,
新宿 (Shinjuku),2011-05-10,20:00～20:59,0.0680,0.0630,0.0656,
新宿 (Shinjuku),2011-05-10,19:00～19:59,0.0687,0.0633,0.0658,
新宿 (Shinjuku),2011-05-10,18:00～18:59,0.0704,0.0645,0.0669,
新宿 (Shinjuku),2011-05-10,17:00～17:59,0.0709,0.0647,0.0668,
新宿 (Shinjuku),2011-05-10,16:00～16:59,0.0686,0.0642,0.0667,
新宿 (Shinjuku),2011-05-10,15:00～15:59,0.0689,0.0628,0.0662,
新宿 (Shinjuku),2011-05-10,14:00～14:59,0.0693,0.0631,0.0658,
新宿 (Shinjuku),2011-05-10,13:00～13:59,0.0693,0.0638,0.0661,
新宿 (Shinjuku),2011-05-10,12:00～12:59,0.0699,0.0633,0.0660,
新宿 (Shinjuku),2011-05-10,11:00～11:59,0.0701,0.0640,0.0669,
新宿 (Shinjuku),2011-05-10,10:00～10:59,0.0692,0.0630,0.0669,
新宿 (Shinjuku),2011-05-10,09:00～09:59,0.0697,0.0636,0.0668,
新宿 (Shinjuku),2011-05-10,08:00～08:59,0.0687,0.0636,0.0664,
新宿 (Shinjuku),2011-05-10,07:00～07:59,0.0690,0.0629,0.0660,
新宿 (Shinjuku),2011-05-10,06:00～06:59,0.0694,0.0628,0.0652,
新宿 (Shinjuku),2011-05-10,05:00～05:59,0.0681,0.0624,0.0654,
新宿 (Shinjuku),2011-05-10,04:00～04:59,0.0681,0.0619,0.0651,
新宿 (Shinjuku),2011-05-10,03:00～03:59,0.0689,0.0621,0.0655,
新宿 (Shinjuku),2011-05-10,02:00～02:59,0.0684,0.0624,0.0655,
新宿 (Shinjuku),2011-05-10,01:00～01:59,0.0686,0.0614,0.0653,
新宿 (Shinjuku),2011-05-10,00:00～00:59,0.0683,0.0625,0.0654,
新宿 (Shinjuku),2011-05-09,23:00～23:59,0.0671,0.0624,0.0649,
新宿 (Shinjuku),2011-05-09,22:00～22:59,0.0673,0.0621,0.0652,
新宿 (Shinjuku),2011-05-09,21:00～21:59,0.0676,0.0624,0.0651,
新宿 (Shinjuku),2011-05-09,20:00～20:59,0.0677,0.0621,0.0650,
新宿 (Shinjuku),2011-05-09,19:00～19:59,0.0684,0.0625,0.0651,
新宿 (Shinjuku),2011-05-09,18:00～18:59,0.0677,0.0620,0.0650,
新宿 (Shinjuku),2011-05-09,17:00～17:59,0.0685,0.0621,0.0650,
新宿 (Shinjuku),2011-05-09,16:00～16:59,0.0675,0.0626,0.0652,
新宿 (Shinjuku),2011-05-09,15:00～15:59,0.0675,0.0614,0.0647,
新宿 (Shinjuku),2011-05-09,14:00～14:59,0.0680,0.0633,0.0657,
新宿 (Shinjuku),2011-05-09,13:00～13:59,0.0690,0.0631,0.0653,
新宿 (Shinjuku),2011-05-09,12:00～12:59,0.0690,0.0629,0.0655,
新宿 (Shinjuku),2011-05-09,11:00～11:59,0.0686,0.0629,0.0655,
新宿 (Shinjuku),2011-05-09,10:00～10:59,0.0683,0.0635,0.0658,
新宿 (Shinjuku),2011-05-09,09:00～09:59,0.0687,0.0640,0.0663,
新宿 (Shinjuku),2011-05-09,08:00～08:59,0.0689,0.0631,0.0662,
新宿 (Shinjuku),2011-05-09,07:00～07:59,0.0695,0.0624,0.0660,
新宿 (Shinjuku),2011-05-09,06:00～06:59,0.0687,0.0634,0.0659,
新宿 (Shinjuku),2011-05-09,05:00～05:59,0.0688,0.0625,0.0656,
新宿 (Shinjuku),2011-05-09,04:00～04:59,0.0679,0.0623,0.0654,
新宿 (Shinjuku),2011-05-09,03:00～03:59,0.0676,0.0617,0.0652,
新宿 (Shinjuku),2011-05-09,02:00～02:59,0.0674,0.0631,0.0656,
新宿 (Shinjuku),2011-05-09,01:00～01:59,0.0685,0.0632,0.0655,
新宿 (Shinjuku),2011-05-09,00:00～00:59,0.0679,0.0631,0.0653,
